OKEAN-O

Last updated on Mon Nov 03 2025 00:02:16 GMT+0000 (Coordinated Universal Time)

1 25860U 99039A 25306.43020771 .00000915 00000+0 12772-3 0 9997 2 25860 97.9663 2.4704 0001735 75.1822 284.9582 14.80056834415569
UTC large
Height (km)
Speed (km/s)
/
Latitude / Longitude
Inclination (degrees)
Orbital Period (minutes)
Azimuth
Elevation
Range (km)
Doppler Factor

Next 0 passes for location: London (51.5072 / 0.1276)

Sorry there are no passes over London.